| time (UTC) | temp F | wind direction | speed MPH | gust MPH | rain 1hr in | rain 24hr in | rain mn in | humidity % | barometer mb |
| 20260906110039 | 71 | 154 | 3.0 | 7.0 | 0.00 | 0.00 | 0.00 | 91 | 1016.3 |
| 20260906104527 | 71 | 142 | 3.0 | 6.0 | 0.00 | 0.00 | 0.00 | 92 | 1016.1 |
| 20260906103025 | 71 | 136 | 3.0 | 6.0 | 0.00 | 0.00 | 0.00 | 93 | 1016.1 |
| 20260906101524 | 71 | 144 | 2.0 | 6.0 | 0.00 | 0.00 | 0.00 | 94 | 1015.8 |
| 20260906100022 | 71 | 151 | 2.0 | 7.0 | 0.00 | 0.00 | 0.00 | 94 | 1015.7 |
| 20260906094530 | 69 | 148 | 2.0 | 6.0 | 0.00 | 0.00 | 0.00 | 98 | 1015.8 |
| 20260906093022 | 68 | 53 | 2.0 | 5.0 | 0.00 | 0.00 | 0.00 | 98 | 1015.8 |
| 20260906091520 | 68 | 54 | 0.0 | 6.0 | 0.00 | 0.00 | 0.00 | 97 | 1015.7 |
| 20260906090019 | 68 | 58 | 1.0 | 3.0 | 0.00 | 0.00 | 0.00 | 97 | 1015.7 |
| 20260906084519 | 68 | 35 | 0.0 | 4.0 | 0.00 | 0.00 | 0.00 | 97 | 1015.7 |
| 20260906083017 | 68 | 36 | 0.0 | 4.0 | 0.00 | 0.00 | 0.00 | 97 | 1015.6 |
| 20260906081536 | 68 | 26 | 1.0 | 4.0 | 0.00 | 0.00 | 0.00 | 97 | 1015.6 |
| 20260906080017 | 68 | 15 | 1.0 | 3.0 | 0.00 | 0.00 | 0.00 | 96 | 1015.4 |
| 20260906074513 | 69 | 51 | 0.0 | 3.0 | 0.00 | 0.00 | 0.00 | 96 | 1015.3 |
| 20260906073011 | 69 | 45 | 0.0 | 5.0 | 0.00 | 0.00 | 0.00 | 96 | 1015.5 |
| 20260906071511 | 69 | 39 | 0.0 | 3.0 | 0.00 | 0.00 | 0.00 | 95 | 1015.4 |
| 20260906070010 | 69 | 36 | 0.0 | 6.0 | 0.00 | 0.00 | 0.00 | 95 | 1015.4 |
| 20260906064508 | 70 | 11 | 2.0 | 6.0 | 0.00 | 0.00 | 0.00 | 94 | 1015.5 |
| 20260906063008 | 70 | 40 | 0.0 | 5.0 | 0.00 | 0.00 | 0.00 | 94 | 1015.4 |
| 20260906061507 | 70 | 63 | 1.0 | 6.0 | 0.00 | 0.00 | 0.00 | 94 | 1015.4 |
| 20260906060001 | 71 | 82 | 0.0 | 4.0 | 0.00 | 0.00 | 0.00 | 94 | 1015.4 |
| 20260906054600 | 71 | 85 | 3.0 | 8.0 | 0.00 | 0.00 | 0.00 | 94 | 1015.4 |
| 20260906053104 | 71 | 76 | 7.0 | 10.0 | 0.00 | 0.00 | 0.00 | 94 | 1015.2 |
| 20260906051557 | 71 | 91 | 5.0 | 10.0 | 0.00 | 0.00 | 0.00 | 94 | 1015.1 |
| 20260906050112 | 71 | 67 | 7.0 | 10.0 | 0.00 | 0.00 | 0.00 | 94 | 1015.0 |
| 20260906044554 | 71 | 76 | 5.0 | 10.0 | 0.00 | 0.00 | 0.00 | 95 | 1014.9 |
| 20260906043051 | 71 | 91 | 7.0 | 11.0 | 0.00 | 0.00 | 0.00 | 95 | 1014.8 |
| 20260906041550 | 71 | 94 | 7.0 | 11.0 | 0.00 | 0.00 | 0.00 | 96 | 1014.6 |
| 20260906034559 | 71 | 86 | 8.0 | 14.0 | 0.00 | 0.00 | 0.00 | 95 | 1014.6 |
| 20260906033048 | 71 | 90 | 9.0 | 13.0 | 0.00 | 0.00 | 0.00 | 96 | 1014.5 |
| 20260906031551 | 71 | 76 | 8.0 | 13.0 | 0.00 | 0.00 | 0.00 | 96 | 1014.5 |
| 20260906030046 | 71 | 98 | 8.0 | 13.0 | 0.00 | 0.00 | 0.00 | 96 | 1014.6 |
| 20260906024546 | 71 | 82 | 9.0 | 13.0 | 0.00 | 0.00 | 0.00 | 97 | 1014.5 |
| 20260906023050 | 70 | 76 | 11.0 | 14.0 | 0.00 | 0.00 | 0.00 | 98 | 1014.5 |
| 20260906021554 | 70 | 69 | 8.0 | 13.0 | 0.00 | 0.00 | 0.00 | 98 | 1014.6 |
| 20260906020053 | 70 | 40 | 7.0 | 13.0 | 0.00 | 0.00 | 0.00 | 97 | 1014.6 |
| 20260906014552 | 70 | 86 | 10.0 | 15.0 | 0.00 | 0.00 | 0.00 | 97 | 1014.6 |
| 20260906013043 | 70 | 67 | 8.0 | 14.0 | 0.00 | 0.00 | 0.00 | 97 | 1014.6 |
| 20260906011541 | 70 | 67 | 8.0 | 12.0 | 0.00 | 0.00 | 0.00 | 98 | 1014.4 |
| 20260906010039 | 70 | 57 | 9.0 | 15.0 | 0.00 | 0.00 | 0.00 | 98 | 1014.1 |
| 20260906004539 | 70 | 71 | 11.0 | 15.0 | 0.00 | 0.00 | 0.00 | 98 | 1014.0 |
| 20260906003043 | 71 | 74 | 12.0 | 16.0 | 0.00 | 0.00 | 0.00 | 96 | 1014.0 |
| 20260906001538 | 71 | 57 | 13.0 | 18.0 | 0.00 | 0.00 | 0.00 | 96 | 1014.0 |
| 20260906000037 | 71 | 82 | 13.0 | 18.0 | 0.00 | 0.00 | 0.00 | 96 | 1014.1 |
| 20260905234536 | 71 | 73 | 14.0 | 18.0 | 0.00 | 0.00 | 0.00 | 96 | 1014.0 |
| 20260905233041 | 71 | 88 | 14.0 | 19.0 | 0.00 | 0.00 | 0.00 | 96 | 1014.0 |
| 20260905231535 | 71 | 74 | 12.0 | 16.0 | 0.00 | 0.00 | 0.00 | 96 | 1013.9 |
| 20260905230033 | 71 | 82 | 9.0 | 16.0 | 0.00 | 0.00 | 0.00 | 96 | 1013.9 |
| 20260905224533 | 71 | 69 | 12.0 | 18.0 | 0.00 | 0.00 | 0.00 | 95 | 1013.8 |
| 20260905223038 | 71 | 77 | 13.0 | 16.0 | 0.00 | 0.00 | 0.00 | 96 | 1013.9 |
| 20260905221542 | 71 | 51 | 11.0 | 16.0 | 0.00 | 0.00 | 0.00 | 96 | 1013.8 |
| 20260905220030 | 71 | 71 | 13.0 | 19.0 | 0.00 | 0.00 | 0.00 | 96 | 1013.5 |
| 20260905214527 | 71 | 68 | 12.0 | 16.0 | 0.00 | 0.00 | 0.00 | 96 | 1013.4 |
| 20260905213027 | 72 | 74 | 7.0 | 12.0 | 0.00 | 0.00 | 0.00 | 97 | 1013.1 |
| 20260905211540 | 72 | 42 | 5.0 | 9.0 | 0.00 | 0.00 | 0.00 | 97 | 1013.0 |
| 20260905210025 | 72 | 49 | 5.0 | 8.0 | 0.00 | 0.00 | 0.00 | 97 | 1013.0 |
| 20260905204524 | 72 | 59 | 2.0 | 9.0 | 0.00 | 0.00 | 0.00 | 98 | 1013.0 |
| 20260905203030 | 72 | 76 | 7.0 | 10.0 | 0.00 | 0.00 | 0.00 | 97 | 1013.0 |
| 20260905201525 | 73 | 73 | 7.0 | 9.0 | 0.00 | 0.00 | 0.00 | 96 | 1013.1 |
| 20260905200033 | 72 | 84 | 6.0 | 9.0 | 0.00 | 0.00 | 0.00 | 97 | 1013.0 |
| 20260905194523 | 73 | 76 | 3.0 | 6.0 | 0.00 | 0.00 | 0.00 | 97 | 1013.2 |
| 20260905193023 | 72 | 76 | 4.0 | 9.0 | 0.00 | 0.00 | 0.00 | 97 | 1013.2 |
| 20260905191522 | 72 | 58 | 3.0 | 8.0 | 0.00 | 0.00 | 0.00 | 98 | 1013.2 |
| 20260905190022 | 71 | 55 | 5.0 | 8.0 | 0.00 | 0.00 | 0.00 | 98 | 1013.3 |
| 20260905184530 | 72 | 59 | 6.0 | 10.0 | 0.00 | 0.00 | 0.00 | 97 | 1013.4 |
| 20260905183020 | 72 | 74 | 8.0 | 11.0 | 0.00 | 0.00 | 0.00 | 97 | 1013.4 |
| 20260905181520 | 71 | 24 | 5.0 | 10.0 | 0.00 | 0.00 | 0.00 | 98 | 1013.5 |
| 20260905180020 | 71 | 64 | 7.0 | 13.0 | 0.00 | 0.00 | 0.00 | 98 | 1013.4 |
| 20260905174518 | 71 | 68 | 7.0 | 10.0 | 0.00 | 0.02 | 0.00 | 97 | 1013.3 |
| 20260905173018 | 71 | 64 | 6.0 | 9.0 | 0.00 | 0.02 | 0.00 | 97 | 1013.4 |
| 20260905171535 | 72 | 70 | 4.0 | 8.0 | 0.00 | 0.02 | 0.00 | 96 | 1013.4 |
| 20260905170020 | 72 | 59 | 4.0 | 7.0 | 0.00 | 0.02 | 0.00 | 97 | 1013.5 |
| 20260905164517 | 72 | 64 | 4.0 | 8.0 | 0.00 | 0.02 | 0.00 | 98 | 1013.6 |
| 20260905163018 | 71 | 58 | 4.0 | 9.0 | 0.00 | 0.02 | 0.00 | 98 | 1013.5 |
| 20260905161520 | 71 | 63 | 4.0 | 7.0 | 0.00 | 0.02 | 0.00 | 98 | 1013.5 |
| 20260905160026 | 71 | 67 | 5.0 | 10.0 | 0.00 | 0.02 | 0.00 | 98 | 1013.3 |
| 20260905154523 | 71 | 61 | 4.0 | 9.0 | 0.00 | 0.02 | 0.00 | 98 | 1013.3 |
| 20260905153012 | 71 | 58 | 5.0 | 10.0 | 0.00 | 0.02 | 0.00 | 98 | 1013.2 |
| 20260905151514 | 71 | 65 | 5.0 | 13.0 | 0.00 | 0.02 | 0.00 | 98 | 1013.0 |
| 20260905150007 | 71 | 73 | 5.0 | 17.0 | 0.00 | 0.02 | 0.00 | 98 | 1013.0 |
| 20260905144507 | 71 | 58 | 5.0 | 9.0 | 0.00 | 0.02 | 0.00 | 99 | 1012.9 |
| 20260905143006 | 71 | 69 | 7.0 | 13.0 | 0.00 | 0.02 | 0.00 | 99 | 1012.7 |
| 20260905141507 | 71 | 65 | 4.0 | 8.0 | 0.00 | 0.02 | 0.00 | 99 | 1012.6 |
| 20260905140007 | 71 | 54 | 4.0 | 7.0 | 0.00 | 0.02 | 0.00 | 99 | 1012.4 |
| 20260905134508 | 71 | 66 | 4.0 | 9.0 | 0.00 | 0.02 | 0.00 | 99 | 1012.5 |
| 20260905133005 | 71 | 75 | 5.0 | 10.0 | 0.00 | 0.02 | 0.00 | 99 | 1012.7 |
| 20260905131504 | 71 | 63 | 4.0 | 12.0 | 0.00 | 0.02 | 0.00 | 99 | 1012.6 |
| 20260905130100 | 71 | 65 | 3.0 | 5.0 | 0.00 | 0.02 | 0.00 | 99 | 1012.3 |
| 20260905124558 | 72 | 73 | 4.0 | 9.0 | 0.00 | 0.02 | 0.00 | 99 | 1012.1 |
| 20260905123056 | 72 | 47 | 3.0 | 8.0 | 0.00 | 0.02 | 0.00 | 99 | 1011.7 |
| 20260905121554 | 72 | 60 | 3.0 | 8.0 | 0.00 | 0.02 | 0.00 | 99 | 1011.4 |
| 20260905120054 | 72 | 56 | 4.0 | 10.0 | 0.00 | 0.02 | 0.00 | 99 | 1011.3 |
| 20260905114606 | 72 | 28 | 2.0 | 7.0 | 0.00 | 0.02 | 0.00 | 99 | 1011.0 |
| 20260905113048 | 72 | 63 | 3.0 | 8.0 | 0.00 | 0.02 | 0.00 | 99 | 1010.9 |
| 20260905111552 | 71 | 43 | 3.0 | 8.0 | 0.00 | 0.02 | 0.00 | 99 | 1010.7 |